This is the latest recevied weather packets stored in our database for station/object S51UL-6. If no packets are shown the sender has not sent any weather packets the latest 10 day(s).
| Time | Temp. | Humidity | Pressure | Rain* | Wind** | Luminosity | Snow |
|---|---|---|---|---|---|---|---|
| 1777982011 | 21.67° C | 42% | 1012.5 hPa | 0 mm | - | - | - |
| 1777981711 | 22.78° C | 41% | 1012.6 hPa | 0 mm | - | - | - |
| 1777981411 | 23.33° C | 41% | 1012.3 hPa | 0 mm | - | - | - |
| 1777981111 | 22.78° C | 42% | 1012.1 hPa | 0 mm | - | - | - |
| 1777980811 | 22.78° C | 41% | 1012.2 hPa | 0 mm | - | - | - |
| 1777980512 | 22.78° C | 41% | 1012.3 hPa | 0 mm | - | - | - |
| 1777980211 | 22.78° C | 41% | 1012.5 hPa | 0 mm | - | - | - |
| 1777979911 | 22.78° C | 40% | 1012.3 hPa | 0 mm | - | - | - |
| 1777979311 | 23.33° C | 39% | 1011.9 hPa | 0 mm | - | - | - |
| 1777979011 | 23.89° C | 38% | 1011.6 hPa | 0 mm | - | - | - |
| 1777978711 | 24.44° C | 37% | 1011.7 hPa | 0 mm | - | - | - |
| 1777978411 | 25° C | 37% | 1011.6 hPa | 0 mm | - | - | - |
| 1777978111 | 24.44° C | 36% | 1011.5 hPa | 0 mm | - | - | - |
| 1777977812 | 25.56° C | 36% | 1011.4 hPa | 0 mm | - | - | - |
| 1777977512 | 25.56° C | 36% | 1011.6 hPa | 0 mm | - | - | - |
| 1777977212 | 25.56° C | 36% | 1011.4 hPa | 0 mm | - | - | - |
| 1777976914 | 25° C | 37% | 1011.3 hPa | 0 mm | - | - | - |
| 1777976661 | 24.44° C | 39% | 1011.2 hPa | 0 mm | - | - | - |
| 1777976612 | 24.44° C | 39% | 1011.2 hPa | 0 mm | - | - | - |
| 1777976312 | 24.44° C | 39% | 1011.5 hPa | 0 mm | - | - | - |
| 1777976013 | 24.44° C | 38% | 1011.3 hPa | 0 mm | - | - | - |
| 1777975712 | 25° C | 37% | 1011.4 hPa | 0 mm | - | - | - |
| 1777975412 | 25° C | 38% | 1011.4 hPa | 0 mm | - | - | - |
| 1777974812 | 25° C | 41% | 1011.2 hPa | 0 mm | - | - | - |
| 1777974212 | 24.44° C | 41% | 1011.3 hPa | 0 mm | - | - | - |
* Rain latest hour (hover to see other rain measurements)
** Current wind speed in m/s (hover to see current wind gust speed)